Theta_e
335 332 330 326 313 312 305 306 311 309 310 317 319 317 317 319 317 313 337 338 339 341 344 347 348 349 349 348 348 347 344 341 339 339 339 338 339 339 343 341 343 341 337 337 336 335 336 334 335
332 328 328 322 309 304 304 309 307 312 317 320 320 319 318 319 327 330 334 338 340 341 343 345 345 348 347 347 347 346 342 340 338 338 338 337 339 341 340 340 342 339 336 336 336 334 334 334 334
333 327 320 315 309 303 303 308 311 316 319 319 317 323 321 321 329 332 338 338 341 341 343 345 346 348 347 346 346 345 344 340 339 339 338 337 339 340 340 340 340 338 335 335 335 334 334 334 334
328 327 322 309 306 309 308 310 312 316 317 320 319 315 325 331 331 336 338 339 340 340 343 343 347 348 346 345 345 345 343 340 338 337 337 336 339 340 339 339 339 338 335 334 334 334 334 333 334
330 322 311 308 307 310 312 312 314 315 316 315 318 312 318 330 336 337 337 339 338 339 342 343 345 346 346 345 344 344 343 342 339 337 337 336 335 337 338 337 337 337 334 333 333 334 333 333 333
320 321 307 305 308 312 313 315 315 315 314 316 315 313 318 334 334 336 338 338 339 339 340 342 339 341 343 343 343 343 344 343 340 337 336 335 335 335 337 336 335 335 335 333 333 333 333 333 333
318 314 309 309 309 310 312 316 313 313 313 314 319 310 321 329 336 337 337 339 339 339 339 340 341 340 337 340 340 341 342 341 340 339 338 336 335 333 333 334 333 334 335 333 333 333 332 332 331
319 316 309 310 308 309 314 315 315 314 313 322 322 311 313 327 336 337 337 338 337 337 337 338 338 339 339 339 333 333 337 337 338 336 334 332 332 332 332 331 333 334 334 334 332 332 332 331 330
318 307 305 308 309 311 314 312 315 317 315 318 322 320 325 332 336 335 334 334 335 335 336 337 336 335 336 338 331 329 330 332 332 331 328 327 331 330 328 328 333 334 334 333 333 331 331 330 328
315 310 310 314 315 313 314 313 315 313 314 315 318 324 328 332 332 331 330 330 332 333 334 335 335 334 334 333 334 334 334 334 334 334 333 333 332 330 329 326 328 331 330 330 329 330 329 326 326
317 310 314 315 316 313 312 311 313 312 312 316 316 320 326 329 330 329 330 331 331 334 334 334 334 333 333 332 333 334 332 333 333 334 334 333 332 331 329 328 327 329 324 327 327 325 326 327 327
312 316 316 316 313 314 313 316 312 312 314 319 317 321 326 326 327 328 329 330 331 333 334 334 333 332 332 331 332 332 332 333 331 332 332 332 331 331 328 327 327 328 327 327 327 327 327 327 327
313 313 317 317 316 316 316 314 315 314 317 319 318 318 324 326 327 329 331 332 333 331 334 334 333 331 331 330 331 331 331 331 331 331 331 330 330 330 330 327 326 326 326 326 326 326 326 326 326
311 312 313 316 316 316 312 313 314 316 318 314 315 316 321 325 327 328 330 329 330 333 333 335 333 332 331 330 329 329 330 330 330 330 330 330 329 329 328 327 326 325 325 325 326 326 325 325 325
312 306 309 310 312 313 314 309 310 315 319 318 315 315 319 323 327 327 329 329 331 333 334 335 334 332 331 330 330 328 328 328 328 328 329 329 328 328 327 326 326 326 326 324 324 325 325 324 324
307 306 300 306 308 311 310 301 311 317 318 317 316 315 317 321 325 328 329 330 332 333 334 335 334 332 331 330 331 329 328 327 326 327 327 328 327 327 327 326 325 326 325 324 322 322 322 323 323
303 296 298 301 308 307 308 301 309 316 316 314 316 315 315 319 323 326 329 330 331 334 334 333 334 331 331 331 331 331 330 328 327 326 327 327 326 326 326 327 328 327 325 323 322 322 323 322 323
295 296 298 298 304 307 305 305 309 314 314 314 316 316 315 316 320 325 328 330 331 333 334 333 333 333 332 333 332 331 331 330 329 327 327 326 326 326 327 328 329 329 327 324 324 324 325 324 323
299 299 298 301 304 303 303 304 305 310 313 314 314 316 316 314 319 322 326 329 329 331 333 333 332 333 333 332 331 330 328 329 329 329 329 327 326 326 327 328 327 329 328 327 325 325 324 324 325
300 297 298 301 304 303 301 300 304 306 309 313 316 316 317 317 317 318 322 327 328 329 331 333 333 333 333 333 333 332 330 330 330 331 330 329 327 327 326 326 326 328 327 327 327 326 324 324 326
298 297 298 297 302 304 301 299 301 306 309 311 314 317 318 319 319 319 319 323 328 329 330 331 333 333 334 334 334 332 331 330 329 330 330 330 329 328 327 326 327 327 328 327 327 327 325 322 324
293 302 300 298 297 292 302 290 299 303 304 306 311 314 316 318 320 321 321 320 324 328 332 332 332 333 334 334 332 330 328 327 329 330 332 332 331 329 327 327 326 327 328 328 328 328 327 325 322
297 302 300 299 297 296 296 291 297 302 301 304 307 312 316 318 319 320 321 322 322 327 330 332 332 332 333 334 333 332 330 330 331 331 332 332 332 331 330 329 328 328 328 329 329 328 328 327 324
303 298 298 297 295 286 293 293 293 298 301 304 308 309 313 315 318 321 322 323 322 324 328 331 331 331 332 332 333 331 330 330 330 330 330 331 332 332 331 331 330 330 330 329 329 329 327 325 323
300 295 286 284 284 283 294 292 294 302 304 306 307 309 311 314 316 319 319 321 321 321 324 328 330 329 331 332 332 332 331 331 330 331 331 331 330 331 331 331 330 330 330 330 330 327 325 324 323
295 295 286 280 283 286 294 288 295 304 307 308 308 310 311 311 314 317 319 320 321 321 321 326 327 327 329 331 331 332 332 332 332 332 332 331 331 331 333 332 331 331 330 330 329 326 324 323 322
294 290 298 290 289 286 290 295 300 304 304 305 307 308 310 311 312 315 316 318 319 321 321 320 324 326 327 328 330 330 331 332 331 332 332 332 332 331 332 331 330 330 330 329 328 325 322 321 321
297 299 289 289 281 280 286 289 291 298 301 304 305 307 309 311 311 311 313 316 318 320 321 321 321 322 324 326 328 329 329 331 332 332 331 331 332 331 330 330 330 329 329 329 326 324 323 321 320
293 291 292 291 289 283 282 287 299 299 302 303 305 306 308 309 309 310 312 314 315 317 317 318 318 319 321 324 326 327 328 329 330 330 331 331 331 330 329 328 328 328 327 326 324 322 321 320 319
294 293 293 286 284 288 287 288 301 303 303 304 303 305 307 308 309 310 311 312 312 311 312 313 315 315 317 322 324 325 326 327 327 328 329 330 329 329 329 328 327 326 325 324 323 322 320 319 318
Wind_Speed
17 13 6 6 7 4 5 5 2 5 4 4 2 5 10 7 10 5 9 7 14 12 13 11 8 13 12 12 12 13 11 11 10 11 11 11 11 12 15 15 15 15 15 15 15 16 15 15 15
13 12 4 4 5 4 7 3 3 3 5 4 1 4 3 7 7 9 11 10 13 12 11 12 8 11 11 10 11 12 10 10 10 11 11 11 11 10 15 13 13 14 13 14 14 15 15 14 14
10 4 5 6 4 6 5 2 5 6 3 2 1 2 4 5 5 12 11 14 13 11 10 13 8 10 11 10 11 12 11 11 10 11 11 11 10 11 14 12 14 15 13 13 14 14 14 14 14
7 2 4 7 4 3 5 5 3 7 3 2 2 3 5 5 7 6 14 14 12 10 10 11 8 9 10 11 11 11 13 11 11 10 10 10 11 13 13 12 12 13 12 12 13 13 13 13 12
3 3 6 5 2 2 2 2 4 6 6 4 3 0 2 4 5 9 14 12 12 10 10 11 8 8 8 10 10 11 12 12 12 11 9 10 9 9 11 12 11 12 12 11 11 11 12 11 10
5 3 7 9 3 4 1 1 5 5 4 5 3 2 3 6 8 11 14 12 12 10 9 11 8 7 7 7 9 9 11 12 14 12 11 10 9 9 10 12 10 9 12 10 10 10 10 9 9
7 5 9 10 8 6 4 1 5 4 3 3 2 3 5 7 8 11 14 13 11 10 9 10 11 9 5 6 8 7 10 11 12 14 11 9 8 10 9 9 9 9 9 9 9 9 9 8 7
3 5 12 11 10 9 6 2 4 4 2 4 2 2 1 11 10 11 14 13 11 10 9 9 10 10 10 9 6 7 9 10 9 11 10 9 8 8 6 4 7 8 8 9 9 9 8 7 7
2 2 10 14 11 10 7 5 5 3 5 5 6 3 5 13 13 13 14 14 11 9 9 9 10 10 10 11 7 7 10 9 10 9 11 9 7 8 9 5 5 7 6 6 6 7 6 6 5
10 13 20 21 12 12 6 5 7 5 8 8 8 5 3 13 14 15 16 15 15 13 12 10 10 10 9 8 10 9 9 9 8 8 9 6 6 5 4 6 4 5 5 5 4 4 4 7 5
6 15 14 6 12 6 8 7 3 9 11 9 11 12 12 12 14 15 16 15 13 13 11 12 11 11 10 8 8 6 6 6 6 9 9 5 4 3 4 4 4 5 5 5 5 5 6 5 3
10 12 14 8 5 6 10 8 11 10 11 8 5 8 16 15 16 17 17 17 16 14 13 12 13 11 12 8 8 8 7 6 6 7 9 6 5 6 5 4 6 5 5 5 5 4 3 4 4
15 15 11 10 8 10 7 13 14 12 10 12 9 5 12 15 16 15 15 14 13 15 13 13 13 12 11 11 9 8 8 7 8 7 9 7 7 6 6 5 5 5 5 5 5 4 4 5 5
6 16 14 13 15 10 10 15 6 11 9 7 10 11 13 16 16 15 16 15 17 16 15 14 14 13 12 11 11 8 8 9 8 7 8 10 7 6 6 6 6 5 5 5 5 5 5 5 5
16 13 14 17 14 13 8 17 20 16 17 15 11 13 14 15 15 19 17 18 17 16 16 16 15 14 13 13 10 8 7 8 7 7 9 10 9 8 7 6 6 6 5 6 5 5 5 5 5
15 17 19 18 18 15 9 21 18 19 20 18 17 14 14 15 17 16 16 17 17 16 18 16 13 14 15 13 10 8 8 8 8 8 8 10 10 10 8 6 6 6 5 6 6 6 6 5 5
16 18 22 20 12 15 17 15 18 21 15 16 15 15 14 14 16 16 17 17 18 19 18 18 17 16 16 14 11 10 11 9 8 8 8 10 11 11 9 6 6 7 5 6 5 6 6 5 6
18 21 20 18 17 15 20 20 19 9 10 17 16 14 14 14 17 16 18 18 18 18 18 17 15 17 16 11 10 9 8 9 9 8 8 12 10 12 10 7 8 7 6 6 6 7 6 6 6
17 15 18 19 13 10 20 22 23 19 19 17 14 15 16 15 14 15 16 17 17 17 18 19 18 18 13 11 10 10 10 9 9 9 12 12 12 12 11 8 9 8 8 8 8 7 9 6 6
20 17 17 14 9 10 18 22 21 21 21 23 20 19 18 17 15 15 15 17 19 19 19 19 19 19 16 11 11 10 10 9 9 10 11 13 13 13 11 11 9 10 8 10 9 9 7 7 6
19 21 19 15 4 13 17 23 23 26 23 23 23 22 21 20 19 17 17 18 18 20 19 19 20 19 18 17 11 9 9 10 10 11 10 12 13 14 13 12 11 10 9 8 10 10 11 7 7
22 21 14 14 6 13 13 13 17 18 23 25 23 24 23 22 20 18 18 20 20 19 18 20 19 20 18 18 14 16 13 12 11 10 10 10 14 14 14 14 13 12 9 10 10 9 10 10 9
17 13 15 15 16 15 20 12 13 21 24 19 21 23 24 22 22 22 20 18 20 19 19 19 21 20 19 18 18 14 16 11 9 10 12 13 11 14 14 15 13 12 10 12 11 10 10 8 8
6 4 8 8 9 13 25 18 13 18 21 15 20 20 21 22 22 22 20 19 19 17 18 17 20 20 21 20 20 20 19 16 12 12 11 9 10 10 15 15 13 13 12 12 11 11 12 10 9
18 11 5 6 8 12 22 17 23 9 14 18 20 19 17 16 18 19 18 17 18 19 19 19 21 21 20 21 22 23 22 20 19 15 12 12 10 10 13 15 14 12 13 12 11 11 12 12 9
18 20 4 9 8 11 13 9 16 17 25 24 23 18 14 15 15 15 17 15 15 15 17 19 19 20 20 21 22 20 22 14 14 15 12 11 11 11 12 13 14 14 13 12 11 10 9 8 8
11 22 24 19 3 4 5 12 18 10 6 9 16 15 19 16 10 13 12 14 14 14 17 18 19 19 20 22 19 20 19 20 16 17 15 12 12 10 12 13 13 13 12 12 11 7 8 8 8
17 6 12 8 7 12 14 17 13 11 17 17 17 17 15 12 13 14 14 13 13 12 12 14 16 18 19 18 18 17 19 19 18 15 16 15 13 13 11 12 13 12 12 11 12 8 8 9 7
15 15 7 1 5 9 12 12 20 16 12 11 13 17 18 17 14 10 9 9 9 8 10 14 16 18 17 18 18 18 17 18 17 16 15 14 13 13 13 12 12 12 12 12 11 8 7 9 10
19 21 23 7 11 6 6 13 12 16 20 16 15 12 14 13 14 11 6 5 6 9 11 13 13 14 15 16 17 17 17 17 17 16 15 14 14 13 13 13 12 11 12 11 11 11 8 11 8
Wind_Direction
316 332 311 253 258 251 78 92 2 98 138 51 11 325 7 17 6 31 143 125 130 132 121 142 138 127 125 124 122 112 111 111 106 105 107 107 110 106 93 88 88 92 89 91 90 88 90 93 95
324 332 251 281 277 299 83 87 132 79 74 102 167 252 259 75 59 118 139 158 141 137 145 134 127 129 131 126 122 112 115 111 113 117 115 116 118 103 93 85 97 95 95 96 97 93 98 101 99
333 312 297 320 303 29 37 67 89 120 110 186 213 285 2 56 78 144 114 153 143 140 141 114 130 137 140 140 129 123 122 117 119 118 118 120 118 99 96 89 100 97 99 98 98 101 104 105 101
340 321 216 264 341 63 18 62 121 146 149 240 8 227 127 27 134 124 144 153 149 143 133 129 139 145 152 149 143 135 127 126 115 108 106 115 104 97 101 92 96 101 96 101 106 109 107 110 111
316 259 262 256 264 66 17 17 180 179 139 157 202 107 67 126 115 129 153 159 149 151 129 150 149 142 148 152 145 140 134 130 124 116 112 113 107 96 100 99 86 100 104 110 113 114 117 117 115
283 292 256 251 213 100 6 8 191 203 148 122 200 253 86 116 164 156 159 161 156 148 144 137 135 140 140 143 147 149 144 143 134 128 126 120 125 126 104 110 104 114 114 124 127 122 120 119 114
257 268 268 283 279 282 57 178 230 202 195 202 36 235 79 175 161 163 169 166 158 146 164 156 163 152 141 146 147 165 152 147 144 136 134 120 124 136 140 121 134 118 126 125 128 128 128 128 122
256 238 262 253 263 263 88 237 338 262 333 75 206 223 184 160 158 175 175 171 171 158 174 171 164 170 168 160 158 140 143 149 150 132 121 115 106 98 101 115 142 133 134 136 139 143 144 138 120
356 148 262 255 260 257 109 262 132 353 253 212 185 284 67 135 159 174 181 178 180 173 181 175 168 179 175 165 148 134 124 130 125 130 138 161 142 168 168 92 128 136 133 139 149 149 145 127 120
221 225 227 233 238 263 288 268 311 249 218 225 219 186 180 156 170 181 189 191 190 185 185 178 178 179 177 175 161 168 156 167 175 177 177 210 162 149 137 116 107 122 133 126 136 151 156 203 171
221 247 256 249 235 238 247 255 239 255 262 264 267 197 182 179 187 192 195 203 204 195 187 189 185 181 183 182 183 181 179 190 199 197 200 202 179 160 178 149 175 175 189 184 183 174 210 225 257
256 240 263 226 186 229 244 267 248 233 268 297 314 312 169 191 206 200 200 201 192 207 195 195 192 188 188 184 191 187 187 189 198 200 196 191 202 186 198 186 189 191 186 213 209 214 245 239 248
238 259 236 241 214 240 262 246 257 253 264 271 236 249 191 202 209 213 205 203 200 209 208 197 202 195 192 197 195 195 197 194 201 201 201 204 207 202 199 204 197 204 199 212 217 230 219 232 249
230 239 241 238 239 236 253 257 240 235 222 258 243 231 222 209 207 211 205 201 207 209 207 209 202 204 200 201 202 201 201 195 211 204 204 209 212 202 206 206 208 211 213 218 229 228 229 238 247
261 253 243 246 235 238 255 256 245 250 252 252 245 233 227 215 208 210 207 206 207 210 208 203 202 204 209 205 207 211 208 212 207 210 208 206 215 212 214 212 212 218 213 231 231 236 240 254 249
234 240 248 236 234 231 222 264 243 227 232 232 233 229 221 222 217 211 210 210 209 215 209 202 200 204 208 206 207 209 213 213 214 209 205 208 214 222 212 217 220 221 219 218 227 230 240 245 257
221 238 230 249 229 223 213 263 251 250 221 235 236 223 219 220 220 215 207 209 211 213 207 204 198 206 204 208 208 210 215 215 217 214 207 204 210 215 220 222 223 216 221 227 232 234 241 254 247
216 227 247 251 226 217 236 247 260 276 266 248 244 231 220 218 226 213 209 208 207 211 212 207 201 203 205 203 207 208 211 217 220 214 213 211 207 210 214 223 221 218 217 224 223 235 239 238 259
249 243 234 240 237 240 247 250 254 250 242 236 234 231 223 221 226 219 210 208 208 210 209 212 206 204 199 201 199 207 210 207 215 218 215 214 212 208 211 219 224 216 221 224 225 229 234 242 236
243 247 244 243 240 226 260 259 256 254 251 249 240 237 230 219 219 217 211 204 208 210 210 212 213 207 205 200 203 206 210 217 215 212 214 213 212 212 209 213 219 219 219 225 227 226 236 239 238
229 236 236 248 225 233 272 271 265 259 254 250 247 242 245 226 222 218 206 213 208 210 207 209 210 209 205 204 203 195 216 215 209 217 212 211 211 210 215 212 216 221 218 226 222 222 222 237 228
234 220 245 263 276 254 228 281 267 255 238 231 235 236 233 234 226 221 218 204 212 215 210 210 210 209 207 202 205 202 205 209 213 207 211 208 207 213 211 216 216 220 220 222 228 225 224 223 238
243 236 236 242 251 264 262 267 268 252 259 249 232 230 232 228 228 222 216 220 208 208 212 212 206 208 206 207 205 209 214 216 214 212 211 207 207 210 216 215 215 218 220 227 224 222 228 233 239
222 228 246 235 248 238 243 239 255 243 257 255 254 241 233 233 229 229 219 212 217 208 205 209 212 210 205 203 203 212 215 215 213 215 208 208 204 207 213 216 215 216 222 223 224 225 231 221 230
211 199 203 217 206 238 238 237 241 261 264 266 254 254 250 243 228 232 228 220 216 207 201 204 207 209 209 206 206 207 214 216 219 213 212 203 206 206 209 207 211 214 219 219 220 226 231 231 227
213 211 210 221 229 245 208 228 245 227 238 256 268 270 266 275 265 231 230 231 227 217 207 205 209 211 205 206 211 212 213 218 218 216 214 214 212 209 205 204 209 212 216 218 213 224 227 223 225
206 220 232 268 260 297 236 255 270 245 257 271 269 274 262 244 255 263 255 235 235 223 216 210 211 212 213 209 207 212 211 215 216 214 216 215 210 212 205 205 205 210 209 214 216 210 213 210 221
236 205 215 207 213 228 239 243 254 226 233 238 253 260 265 257 246 246 250 241 237 229 223 221 221 219 214 214 211 212 212 212 215 215 214 213 212 206 205 203 206 205 210 209 217 214 201 212 217
207 227 230 257 243 255 273 250 251 255 269 256 244 262 275 276 274 257 261 248 242 232 234 233 222 221 218 212 214 212 211 211 211 211 213 209 207 207 205 206 208 208 206 211 215 203 204 215 230
233 228 234 240 205 211 285 269 290 303 313 311 336 292 288 294 295 309 318 248 226 217 232 230 233 222 220 215 212 211 212 208 207 209 208 204 206 204 204 205 206 204 208 211 209 209 205 222 219